Torna al catalogo

SL-14 DEB

AttivoPO
NORAD 45328·DEBRIS·🇷🇺 Russia

Lanciato Aug 15, 1991 da Plesetsk Cosmodrome

Loading…

Prossimi Passaggi (prossime 24 ore)

TLE

AggiornatoSource: Space-Track

Epoca: Sep 14, 2026, 05:41 UTC

1 45328U 91056BS  26257.23712850  .00001338  00000-0  21178-2 0  9999
2 45328  82.5505 355.9981 0105763 276.3008  82.6094 13.46862714320755

Traccia SL-14 DEB in tempo reale con AllMySat

Download on the App Store